Location: Blackrock Ranger Station
(36.0936°N, 118.2611°W)
Time: 06:17:20
(UTC-08:00)

ISS - Visible Passes

Search period start: 08 December 2025 00:00
Search period end: 18 December 2025 00:00
Orbit: 416 x 421 km, 51.6° (Epoch: 07 December)

Date Brightness Start Highest point End Pass type
(mag) Time Alt. Az. Time Alt. Az. Time Alt. Az.
11 Dec -1.3 05:54:04 10° S 05:56:55 26° SE 05:59:46 10° ENE visible
12 Dec -0.6 05:07:15 10° SSE 05:09:09 14° SE 05:11:04 10° E visible
13 Dec -3.8 05:54:19 10° SW 05:57:40 87° NW 06:01:01 10° NE visible
14 Dec -2.9 05:08:41 33° S 05:09:44 47° SE 05:12:59 10° ENE visible
15 Dec -0.6 04:23:56 14° E 04:23:56 14° E 04:24:41 10° ENE visible
15 Dec -2.8 05:56:55 19° W 05:58:33 29° NW 06:01:32 10° NNE visible
16 Dec -2.5 05:11:43 30° NNE 05:11:43 30° NNE 05:13:44 10° NE visible
17 Dec -1.8 05:59:12 14° NNW 05:59:36 14° NNW 06:01:26 10° N visible
